Location: 5810 Zion Rd, Cleves, OH 45002, USA
(39.1922°N, 84.7113°W)
Time: 04:16:55
(UTC-05:00)

Vanguard 3 - Pass Details

Date: 15 December 2019
Orbit: 507 x 3264 km, 33.4° (Epoch: 28 January)

Event Time Altitude Azimuth Distance (km) Brightness Sun altitude
Rises 14:23:38 0° 272° (W) 5,630 11.8 22.5°
Reaches altitude 10° 14:28:18 10° 258° (WSW) 5,054 11.9 22.1°
Maximum altitude 14:38:34 21° 216° (SW) 4,848 14.2 21.1°
Drops below altitude 10° 14:51:02 10° 176° (S) 6,172 12.6 19.8°
Sets 14:57:53 0° 163° (SSE) 7,200 12.5 19.1°
